Temperature
15 13 13 13 12 14 15 14 13 12 13 13 13 12 12 13 14 15 15 16 16 16 16 17 18 18 18 18 17 16 15 15 14 14 13 12 12 11 11 11 10 10 9 9
13 13 13 13 13 13 13 14 13 12 13 13 12 11 12 13 14 14 14 15 15 16 17 17 17 17 17 17 16 16 15 14 14 13 12 12 11 11 11 10 10 10 9 9
14 14 14 14 14 14 13 13 13 13 13 12 12 14 14 14 14 14 15 15 15 15 16 16 16 16 16 16 16 15 15 14 13 13 12 11 11 11 11 10 10 9 9 9
12 13 13 14 14 14 13 13 13 13 12 11 12 12 13 13 14 14 14 15 15 15 15 16 16 16 15 15 15 14 14 13 13 12 12 11 11 11 11 10 10 9 9 8
13 14 14 14 14 13 13 14 13 13 12 11 11 11 12 12 14 13 14 14 15 15 15 15 15 14 14 14 14 13 13 13 12 12 12 11 11 11 10 10 10 9 9 8
13 14 15 15 14 14 13 12 11 9 9 12 12 11 12 11 13 13 13 14 14 14 14 14 14 13 13 13 13 13 12 12 12 12 11 11 11 10 10 10 9 9 9 8
14 14 14 14 14 13 13 12 12 13 11 12 12 11 11 12 12 12 13 14 14 14 14 13 13 13 13 12 12 12 12 12 11 11 11 10 10 10 9 9 9 8 8 8
14 13 14 13 14 13 13 12 12 13 12 11 11 11 11 12 11 12 13 14 14 14 13 13 12 12 12 12 11 11 11 11 10 10 10 9 9 8 8 8 8 8 7 7
12 13 13 13 13 13 12 11 11 10 11 10 10 10 11 12 11 11 12 13 13 13 12 12 12 11 11 11 11 10 10 10 9 9 9 8 8 7 7 7 7 7 7 7
12 14 14 13 13 12 12 9 9 10 12 12 11 11 11 13 12 11 11 12 13 12 12 11 11 11 10 10 10 10 9 9 8 8 8 7 7 7 6 6 6 6 6 6
13 13 13 13 12 12 11 11 10 8 9 10 11 11 11 12 12 11 11 12 12 12 12 11 11 10 10 10 9 9 8 8 7 7 7 6 6 6 6 6 6 6 6 5
11 10 11 12 12 11 11 11 9 11 10 8 8 11 12 11 11 11 11 12 12 12 11 11 10 10 10 9 9 8 7 7 6 6 6 6 6 6 6 6 5 5 5 5
10 11 12 12 12 11 11 10 9 9 8 6 8 11 11 10 10 11 11 11 11 11 11 10 10 9 9 8 8 7 7 6 6 6 5 5 5 5 5 5 5 4 4 4
11 10 11 13 12 11 11 11 9 9 8 7 7 10 11 10 10 10 10 11 11 10 10 9 9 8 8 7 7 6 6 5 5 5 5 5 5 5 4 4 4 3 3 2
10 11 11 10 11 11 11 11 9 9 9 9 9 9 10 10 9 10 10 10 10 9 9 8 8 7 7 6 6 5 5 5 5 4 4 4 4 4 3 3 3 2 2 1
9 10 10 11 10 9 9 9 9 9 8 8 8 9 9 9 9 9 9 9 9 9 8 8 7 7 6 5 5 5 4 4 4 4 4 3 3 3 2 2 2 1 1 0
7 8 9 9 9 9 9 9 9 8 8 8 8 8 8 8 8 9 9 9 8 8 7 7 6 6 5 5 4 4 4 3 3 3 3 3 2 2 1 1 1 0 -0 -0
7 8 7 7 9 9 10 10 9 9 9 7 8 8 8 8 9 9 9 8 8 7 6 6 5 5 4 4 4 3 3 3 3 2 2 2 1 1 0 -0 -0 -1 -1 -1
7 7 6 6 7 7 9 9 9 8 8 8 7 7 8 8 7 8 8 7 7 6 5 5 4 4 4 3 3 3 3 2 2 2 1 1 0 -0 -1 -1 -1 -2 -2 -2
5 6 6 5 7 8 10 10 10 9 8 8 7 7 7 6 5 5 7 6 6 5 5 4 4 4 3 3 2 2 2 2 1 1 0 -0 -1 -1 -2 -2 -2 -2 -3 -3
6 6 5 5 6 7 8 9 9 9 9 8 8 8 7 6 5 6 6 5 5 4 4 4 3 3 3 2 2 1 1 1 0 -0 -0 -1 -1 -2 -2 -3 -3 -3 -3 -4
6 5 5 4 5 7 8 7 7 8 8 8 8 7 7 6 6 5 5 4 4 4 3 3 3 3 2 2 1 1 1 0 -0 -1 -1 -1 -2 -2 -3 -3 -3 -4 -4 -4
6 7 6 6 7 7 8 8 8 8 8 7 7 6 6 5 5 4 4 4 3 3 3 2 2 2 2 1 0 -0 -0 -1 -1 -1 -2 -2 -2 -3 -3 -4 -4 -4 -5 -5
6 5 5 5 5 6 7 7 7 7 7 6 6 5 5 4 4 4 3 3 3 2 2 2 1 1 1 1 0 -0 -1 -1 -2 -2 -2 -3 -3 -4 -4 -4 -5 -5 -5 -6
6 4 5 5 5 6 6 7 7 6 6 5 5 4 4 4 3 3 2 2 2 2 2 1 1 0 0 0 -0 -1 -1 -2 -3 -3 -3 -4 -4 -4 -5 -5 -5 -5 -6 -6
4 5 5 6 6 5 6 6 6 5 5 4 4 4 3 3 3 2 2 2 2 1 1 1 0 0 -0 -0 -1 -1 -2 -3 -3 -4 -4 -4 -5 -5 -5 -5 -5 -5 -6 -6
Wind_Speed
3 3 4 8 8 5 3 4 7 8 5 4 6 9 10 8 3 4 7 9 10 10 10 10 11 8 5 3 4 6 7 7 7 5 5 5 6 5 5 11 16 18 20 20
4 5 8 4 4 3 3 4 7 7 3 2 6 8 6 2 2 2 4 7 9 10 13 13 12 10 7 3 1 3 5 7 7 6 4 3 3 4 5 8 14 19 20 20
8 6 1 5 4 4 5 6 6 5 6 3 5 6 2 1 2 2 3 5 7 8 10 11 11 11 9 7 3 1 3 5 6 6 4 2 1 1 2 5 7 13 18 20
7 6 3 4 5 7 6 5 5 2 2 5 4 4 5 2 4 2 3 5 7 8 8 8 9 10 9 8 5 3 1 2 4 6 5 6 6 7 7 5 6 7 14 18
6 3 4 5 6 8 6 1 2 1 2 2 1 2 8 2 5 6 3 2 4 5 7 8 8 7 8 7 7 5 4 2 2 4 6 6 7 8 6 4 6 7 8 13
7 3 4 5 1 4 4 5 5 5 4 2 2 4 6 4 7 5 4 3 2 3 6 7 7 7 8 8 8 7 6 4 1 2 4 6 8 8 8 8 8 7 6 7
4 3 3 3 4 2 4 4 4 4 3 4 1 3 8 6 5 6 7 6 3 2 4 5 7 8 9 9 8 7 7 5 3 1 2 5 7 8 9 9 8 8 7 7
2 4 4 4 6 6 4 6 5 3 4 5 3 5 7 5 4 2 5 6 4 2 2 3 5 6 6 8 7 7 7 5 5 4 3 4 5 5 6 8 8 8 8 9
7 5 1 2 1 8 6 3 5 5 2 4 6 7 8 0 3 4 5 3 3 2 1 2 4 5 5 6 6 6 6 6 6 6 5 5 5 5 7 8 8 8 9 9
9 3 1 1 4 5 4 8 5 4 2 4 7 6 5 4 3 3 3 4 3 2 1 1 2 3 4 4 4 5 5 5 5 6 6 5 6 7 7 8 9 9 10 9
6 4 1 1 6 7 5 4 5 4 4 4 4 7 6 6 4 5 5 4 4 3 2 0 1 3 3 4 4 5 6 6 7 7 7 7 8 8 8 8 9 10 10 10
5 5 2 4 1 3 6 7 8 5 5 5 4 8 4 3 1 3 3 3 2 2 2 1 1 3 4 5 6 6 6 6 7 7 7 8 9 9 9 10 10 10 10 10
7 6 2 4 4 1 2 5 5 5 5 6 5 8 2 2 2 1 1 1 0 1 1 1 2 3 4 5 6 6 7 7 7 7 8 9 10 10 10 11 11 11 11 11
6 5 6 7 6 6 5 6 7 7 5 6 10 10 6 4 4 3 2 1 1 1 0 1 3 4 5 5 6 7 7 7 8 8 9 10 11 11 11 11 12 12 11 12
5 5 6 6 4 4 7 9 9 11 10 11 10 10 11 6 5 4 3 2 1 1 2 3 4 5 5 6 7 7 8 8 8 9 10 11 11 11 11 12 12 12 12 13
4 5 3 3 1 3 7 11 12 11 9 10 9 10 5 1 2 2 3 2 2 2 4 5 5 6 6 6 7 8 8 9 9 10 12 12 12 12 12 12 13 13 13 13
5 7 4 4 3 5 9 10 9 7 7 9 9 7 2 1 2 3 4 3 3 4 5 5 6 6 6 7 7 8 8 9 10 11 12 12 12 13 13 14 14 14 13 12
8 7 4 2 1 8 8 2 6 5 4 6 5 3 3 3 3 4 2 2 3 4 5 5 6 6 6 6 7 8 8 9 10 11 12 12 13 14 14 14 14 14 13 13
5 8 5 4 4 9 9 5 6 6 4 4 6 4 2 1 4 4 0 0 3 4 4 5 5 6 6 8 8 8 10 10 11 12 13 13 13 15 15 15 15 14 14 14
4 5 6 5 5 8 7 2 2 4 4 4 6 5 3 3 1 4 3 3 4 5 4 5 5 6 7 8 8 9 11 11 12 13 13 13 13 14 16 16 16 14 13 14
5 3 5 6 7 9 7 3 5 4 6 5 6 5 4 5 5 4 4 4 4 5 5 5 6 7 8 8 8 10 11 12 13 13 14 14 13 14 15 15 14 14 14 14
9 8 8 7 6 10 3 6 8 6 3 5 4 3 3 4 4 4 4 5 6 6 6 6 7 9 9 8 8 11 13 13 13 13 14 14 13 13 14 14 15 14 14 14
8 9 7 10 8 2 1 5 3 4 4 3 2 1 1 2 3 4 5 6 6 6 7 7 7 10 10 8 8 12 14 13 13 13 14 14 14 13 13 13 15 14 12 12
5 3 5 5 6 3 2 3 3 3 2 2 1 0 1 2 4 5 5 6 6 7 7 7 8 10 11 10 10 11 13 12 13 14 15 14 14 14 13 11 11 12 12 12
6 7 5 5 3 2 2 3 3 2 2 2 1 0 1 2 4 5 5 7 7 7 7 7 8 11 13 12 11 11 11 12 13 14 14 14 12 13 13 12 11 13 11 14
5 7 8 7 7 7 5 4 4 3 1 1 0 1 1 2 5 6 6 7 7 8 8 9 10 11 12 12 13 12 11 10 12 14 13 12 12 12 12 13 14 17 19 24
Wind_Direction
45 72 230 226 206 209 213 238 267 268 286 304 276 284 299 316 349 16 10 6 5 358 346 6 20 33 61 103 164 184 186 182 167 168 183 201 224 220 221 222 222 218 219 216
32 264 241 210 177 188 207 257 273 289 305 291 299 291 290 303 309 329 356 4 1 358 4 10 17 27 34 47 135 191 193 185 183 181 169 180 191 214 219 224 227 225 223 221
209 239 184 151 169 190 225 220 243 274 326 7 337 325 323 346 346 347 18 16 12 11 4 2 10 17 23 25 12 205 201 194 189 173 150 133 117 318 253 232 232 230 227 227
234 261 216 207 221 188 257 237 214 244 335 308 20 308 281 271 301 302 346 13 17 12 10 12 14 14 17 13 19 37 89 170 178 170 177 193 213 235 239 229 232 230 225 228
246 229 194 211 226 183 216 104 153 202 185 304 338 202 285 283 246 242 241 15 26 20 20 20 17 16 20 21 31 38 56 71 149 179 194 206 232 247 262 260 255 249 236 232
245 251 218 211 150 159 135 80 64 58 81 308 224 178 279 236 220 218 199 176 89 40 32 26 21 27 27 27 33 35 47 44 59 183 207 219 239 256 272 272 268 265 253 242
278 251 228 151 124 73 100 79 12 350 6 262 241 204 252 257 247 217 191 181 165 87 50 31 28 26 22 21 21 24 32 26 18 4 243 241 247 255 261 269 270 272 269 258
240 278 226 188 181 171 160 140 158 233 261 291 307 239 255 284 306 222 162 159 156 119 73 48 37 30 21 19 18 17 18 9 360 352 316 281 264 260 263 266 266 268 269 268
189 246 46 105 145 136 131 158 156 134 175 278 287 290 305 36 62 95 124 149 186 172 118 56 35 29 19 13 9 4 4 356 348 342 330 319 304 283 278 279 273 270 269 273
161 197 181 65 91 35 136 141 107 127 179 279 296 284 258 254 196 172 185 213 235 213 162 65 25 8 1 357 349 354 357 343 332 333 327 317 310 299 290 289 286 282 279 277
152 159 212 125 192 187 129 132 123 122 159 177 275 277 228 220 209 199 218 234 239 213 187 189 338 341 341 343 348 347 344 340 333 329 324 318 310 304 299 292 286 284 283 280
144 127 219 255 277 173 176 175 153 165 213 183 203 269 280 214 208 182 212 241 241 188 173 193 321 332 336 337 337 335 332 329 320 316 315 309 304 303 300 294 290 287 284 282
137 121 70 348 351 51 196 182 173 138 131 166 190 259 311 63 43 115 200 251 215 149 112 354 328 324 323 325 328 326 323 318 315 315 313 309 306 304 299 296 294 292 289 286
120 132 173 203 216 190 203 196 174 154 179 212 223 249 273 289 292 285 272 258 240 270 282 310 311 311 314 318 319 318 315 313 313 313 309 306 303 299 296 295 293 291 289 288
115 175 217 238 234 205 224 221 201 202 205 216 237 239 261 260 246 240 236 241 238 288 305 302 305 305 312 318 317 314 311 311 312 311 308 303 300 297 295 294 293 291 289 288
110 154 168 273 296 253 261 247 228 226 224 231 255 269 264 238 152 203 227 223 239 281 294 299 304 308 311 311 309 309 308 308 310 307 303 301 300 300 298 296 296 294 292 290
140 136 145 256 314 345 275 247 212 208 205 195 220 231 178 166 211 233 237 237 254 285 291 294 298 296 298 299 300 301 299 304 305 301 300 300 300 300 300 300 300 298 296 292
142 139 146 180 79 245 245 244 177 186 224 202 191 182 176 210 262 275 242 215 277 287 289 293 297 298 298 297 297 296 299 302 301 300 299 298 299 300 302 301 299 298 296 295
144 138 135 154 226 276 289 250 183 180 236 198 177 185 190 8 2 333 346 211 262 278 284 283 286 288 294 297 296 302 303 302 301 300 300 300 301 303 304 303 301 300 299 297
72 109 133 153 193 242 251 182 149 116 245 216 168 176 181 117 6 271 288 320 308 307 301 297 300 302 302 300 303 304 303 303 302 301 301 301 301 301 302 301 301 300 298 297
122 141 172 182 217 258 251 203 127 179 240 174 170 181 180 192 215 252 306 311 307 305 302 303 304 300 296 299 303 300 301 299 299 300 301 301 300 299 298 299 299 300 300 299
172 171 186 165 199 249 219 147 177 198 144 148 163 179 199 230 268 296 306 306 313 312 307 306 305 301 300 299 300 300 300 299 301 302 303 303 302 302 305 301 302 301 301 303
197 191 186 191 208 252 152 165 150 135 138 155 170 190 206 263 283 298 302 305 303 298 298 299 297 299 300 295 291 295 299 303 306 306 305 305 305 303 301 300 303 304 304 304
232 162 161 224 253 227 173 138 116 109 125 123 123 154 208 266 288 296 295 294 296 295 297 297 299 301 302 301 294 288 297 303 304 305 306 306 308 307 304 300 300 302 303 303
209 168 183 231 237 163 215 186 147 101 77 65 36 3 262 273 283 280 283 286 287 290 290 291 291 293 295 298 297 296 298 302 303 304 306 307 305 305 306 303 299 300 293 294
193 180 182 218 204 181 201 183 150 143 157 178 230 308 293 253 263 274 276 277 281 286 288 291 289 289 293 297 298 299 297 297 301 307 308 308 308 306 306 306 305 300 300 303
Height
1533 1537 1540 1538 1537 1537 1538 1541 1543 1539 1532 1532 1530 1528 1522 1518 1517 1516 1514 1513 1511 1510 1508 1506 1504 1502 1502 1502 1502 1504 1505 1507 1509 1511 1512 1514 1515 1517 1519 1520 1521 1522 1522 1523
1537 1538 1532 1531 1534 1537 1539 1541 1542 1537 1532 1532 1531 1528 1521 1518 1518 1517 1516 1514 1513 1511 1509 1508 1506 1505 1504 1504 1504 1504 1505 1506 1507 1509 1510 1512 1513 1513 1515 1516 1516 1516 1516 1516
1535 1532 1529 1530 1533 1536 1537 1540 1538 1537 1534 1532 1532 1526 1521 1519 1518 1518 1517 1516 1514 1513 1512 1510 1509 1508 1507 1506 1505 1505 1505 1506 1507 1507 1508 1509 1509 1509 1510 1510 1510 1510 1510 1509
1533 1529 1529 1529 1531 1533 1539 1532 1534 1535 1538 1542 1538 1541 1525 1520 1519 1518 1517 1516 1516 1515 1514 1513 1512 1510 1509 1508 1507 1507 1507 1507 1507 1507 1507 1507 1507 1506 1506 1506 1505 1504 1503 1502
1529 1526 1526 1528 1527 1529 1531 1530 1532 1534 1538 1542 1541 1543 1531 1522 1520 1518 1517 1517 1516 1516 1516 1515 1514 1513 1512 1511 1510 1509 1508 1508 1508 1507 1507 1506 1505 1504 1503 1501 1500 1498 1497 1495
1526 1523 1523 1523 1523 1526 1528 1532 1537 1542 1545 1545 1537 1542 1533 1524 1517 1515 1515 1516 1517 1517 1517 1516 1516 1515 1514 1513 1512 1511 1510 1509 1508 1507 1506 1505 1503 1501 1499 1497 1495 1493 1491 1489
1525 1522 1520 1521 1524 1527 1529 1538 1546 1541 1547 1543 1537 1540 1531 1515 1513 1513 1513 1515 1516 1517 1517 1517 1516 1516 1515 1514 1513 1512 1510 1509 1508 1506 1505 1503 1501 1498 1495 1493 1490 1487 1484 1482
1528 1528 1520 1520 1522 1526 1529 1535 1545 1546 1548 1547 1539 1538 1523 1513 1511 1510 1511 1514 1515 1516 1517 1517 1516 1516 1515 1514 1513 1512 1510 1509 1507 1505 1502 1500 1497 1494 1491 1488 1485 1481 1478 1475
1528 1526 1520 1519 1520 1523 1530 1535 1536 1547 1548 1550 1543 1533 1520 1511 1511 1511 1512 1513 1514 1515 1516 1516 1516 1515 1515 1514 1512 1511 1509 1507 1504 1502 1499 1496 1493 1490 1486 1483 1479 1476 1472 1468
1518 1522 1520 1520 1521 1524 1525 1532 1542 1546 1547 1547 1542 1535 1526 1512 1512 1512 1512 1512 1513 1514 1514 1515 1515 1515 1514 1513 1511 1509 1507 1504 1501 1498 1495 1492 1488 1485 1481 1477 1473 1469 1465 1461
1514 1521 1523 1522 1524 1524 1529 1532 1537 1546 1547 1549 1546 1533 1514 1511 1509 1510 1511 1511 1511 1512 1513 1513 1514 1513 1512 1511 1509 1506 1504 1501 1497 1494 1491 1487 1483 1479 1475 1471 1466 1461 1456 1452
1514 1523 1527 1524 1521 1521 1523 1527 1534 1539 1542 1549 1550 1533 1508 1508 1508 1508 1509 1509 1510 1510 1511 1512 1512 1511 1510 1508 1505 1503 1500 1497 1493 1489 1486 1482 1477 1473 1468 1463 1458 1453 1448 1443
1513 1521 1529 1527 1528 1525 1524 1525 1528 1533 1540 1550 1547 1527 1509 1508 1507 1507 1508 1508 1508 1509 1509 1510 1509 1508 1507 1504 1502 1499 1496 1492 1488 1484 1480 1476 1471 1466 1460 1455 1450 1444 1439 1433
1507 1517 1523 1525 1523 1521 1521 1522 1526 1530 1537 1540 1534 1518 1509 1508 1507 1507 1507 1507 1507 1507 1508 1507 1507 1505 1503 1501 1498 1495 1491 1488 1483 1479 1474 1469 1464 1458 1452 1447 1441 1435 1430 1424
1506 1515 1517 1517 1516 1517 1518 1517 1520 1523 1522 1523 1516 1514 1506 1506 1505 1505 1505 1505 1505 1506 1505 1505 1504 1502 1499 1496 1493 1490 1486 1482 1478 1473 1467 1462 1456 1451 1444 1438 1432 1426 1421 1415
1507 1513 1516 1516 1516 1518 1518 1513 1513 1514 1514 1514 1511 1509 1503 1503 1503 1503 1504 1504 1504 1504 1503 1502 1500 1498 1495 1492 1489 1485 1481 1477 1472 1466 1461 1455 1449 1442 1436 1430 1423 1417 1411 1406
1509 1514 1519 1522 1519 1516 1516 1503 1504 1505 1504 1506 1507 1504 1502 1502 1502 1502 1502 1502 1502 1502 1501 1499 1497 1494 1491 1488 1484 1480 1475 1471 1465 1460 1454 1448 1441 1434 1428 1421 1415 1409 1402 1396
1508 1513 1520 1524 1520 1522 1503 1495 1495 1498 1498 1499 1499 1499 1500 1501 1501 1501 1500 1500 1500 1499 1498 1496 1493 1490 1487 1483 1479 1475 1470 1465 1459 1453 1447 1440 1433 1426 1419 1413 1407 1400 1394 1388
1503 1510 1521 1526 1523 1515 1500 1493 1494 1497 1497 1495 1497 1498 1499 1500 1500 1499 1499 1499 1498 1496 1494 1492 1489 1486 1482 1479 1474 1469 1464 1458 1452 1446 1440 1433 1426 1419 1412 1405 1399 1393 1386 1380
1506 1507 1517 1524 1521 1515 1496 1490 1489 1493 1497 1494 1494 1496 1498 1499 1502 1500 1497 1496 1494 1493 1491 1488 1485 1482 1478 1473 1468 1463 1457 1452 1446 1439 1433 1426 1420 1413 1405 1398 1391 1385 1379 1372
1509 1512 1515 1519 1518 1505 1490 1488 1490 1498 1494 1492 1493 1494 1496 1496 1497 1496 1494 1493 1491 1489 1487 1484 1480 1477 1472 1468 1462 1457 1451 1445 1439 1432 1426 1419 1413 1406 1398 1391 1384 1378 1371 1365
1500 1507 1511 1514 1516 1503 1486 1487 1490 1489 1489 1490 1491 1492 1493 1493 1493 1492 1491 1489 1487 1485 1482 1479 1475 1471 1467 1462 1457 1450 1445 1439 1432 1425 1418 1412 1405 1399 1391 1384 1377 1371 1365 1358
1491 1489 1492 1494 1490 1485 1483 1484 1485 1486 1488 1489 1490 1490 1491 1490 1490 1489 1487 1485 1483 1480 1477 1474 1470 1465 1461 1457 1451 1445 1438 1432 1425 1418 1411 1404 1397 1391 1385 1378 1371 1364 1359 1352
1484 1483 1486 1488 1484 1482 1483 1483 1484 1485 1486 1487 1488 1488 1488 1487 1486 1485 1483 1481 1479 1476 1473 1469 1464 1459 1455 1451 1445 1439 1432 1425 1418 1411 1404 1397 1390 1383 1377 1371 1365 1359 1353 1347
1477 1481 1483 1483 1481 1481 1481 1482 1483 1484 1484 1485 1485 1485 1485 1484 1483 1482 1479 1477 1474 1471 1468 1464 1459 1454 1448 1443 1438 1433 1426 1419 1411 1404 1397 1390 1384 1377 1370 1364 1360 1354 1348 1344
1474 1475 1478 1477 1474 1477 1478 1480 1481 1482 1482 1483 1483 1482 1482 1481 1480 1478 1476 1473 1470 1466 1462 1458 1453 1448 1442 1437 1431 1425 1419 1412 1405 1398 1391 1384 1378 1371 1365 1358 1351 1347 1343 1337